Regional Weather Roundup
Issued by NWS

Home | Current Version | Previous Version | Graphics & Text | Print | Product List | Glossary On
Versions: 1 2 3 4 5 6 7 8 9 10 11 12 13 14 15 16 17 18 19 20 21 22 23 24 25 26 27 28 29 30 31 32 33 34 35 36 37 38 39 40 41 42 43 44 45 46 47 48 49 50
000
ASUS43 KMPX 192110
RWRMN
WEATHER ROUNDUP FOR MINNESOTA
NATIONAL WEATHER SERVICE TWIN CITIES/CHANHASSEN MN
400 PM CDT TUE AUG 19 2014


NOTE: "FAIR" INDICATES FEW OR NO CLOUDS BELOW 12,000 FEET WITH NO
SIGNIFICANT WEATHER AND/OR OBSTRUCTIONS TO VISIBILITY. N/A MEANS
CURRENT SKY AND/OR WEATHER CONDITIONS ARE NOT AVAILABLE.

MNZ060>063-068>070-192200-
   Twin Cities Metro

CITY           SKY/WX    TMP DP  RH WIND       PRES   REMARKS
TWIN CITIES    PTSUNNY   80  61  52 W12       29.73F
ST PAUL        PTSUNNY   79  61  53 N8        29.73F
CRYSTAL        MOSUNNY   81  61  50 W12       29.72F
BLAINE         PTSUNNY   79  63  57 NW7       29.74S
LAKEVILLE      MOSUNNY   75  63  64 W6        29.75F
EDEN PRAIRIE   PTSUNNY   78  63  59 NW7       29.73F
SOUTH ST PAUL  PTSUNNY   77  59  53 NW7       29.73F
LAKE ELMO      CLOUDY    75  63  64 NW8       29.75S
$$
MNZ001>005-007-008-013>017-022>024-027-028-192200-
   Northwest Minnesota

CITY           SKY/WX    TMP DP  RH WIND       PRES   REMARKS
BEMIDJI        MOSUNNY   74  61  63 NW7       29.77S
HALLOCK        SUNNY     79  63  57 CALM      29.73F
ROSEAU         SUNNY     75  64  69 CALM      29.76S
WARROAD        SUNNY     70  64  83 NE9       29.78S
THIEF RVR FALL PTSUNNY   75  61  60 CALM      29.76S
CROOKSTON      SUNNY     79  64  61 NE7       29.75F
FOSSTON        MOSUNNY   79  63  57 CALM      29.77S
DETROIT LAKES  SUNNY     77  61  57 NW8       29.78S
MOORHEAD       SUNNY     79  66  65 N3        29.76S
PARK RAPIDS    MOSUNNY   78  59  51 N9        29.75F
MAHNOMEN       FAIR      77  62  59 NW7       29.75F
$$
MNZ006-009>011-018-025>026-192200-
   North Central Minnesota

CITY           SKY/WX    TMP DP  RH WIND       PRES   REMARKS
BAUDETTE       PTSUNNY   76  63  64 NE5       29.77S
FLAG ISLAND    SUNNY     70  61  73 CALM      29.77S
INTL FALLS     CLOUDY    72  60  66 NE8       29.76F
WASKISH        CLOUDY    72  64  78 CALM      29.77S
BIG FORK       MOSUNNY   72  61  68 N3        29.77S
LONGVILLE      CLOUDY    72  63  73 NW5       29.76S
GRAND RAPIDS   CLOUDY    72  61  68 N8        29.76R
CRANE LAKE     CLOUDY    66  61  82 CALM      29.78S
ORR            CLOUDY    70  57  64 CALM      29.74S
COOK           CLOUDY    68  61  77 NE5       29.77S
WALKER         MOCLDY    72  64  75 N6        29.76S
$$
MNZ012-019>021-037-192200-
   Northeast Minnesota

CITY           SKY/WX    TMP DP  RH WIND       PRES   REMARKS
DULUTH         PTSUNNY   69  62  78 N12       29.74S
ELY            CLOUDY    64  59  82 N5        29.76S
HIBBING        CLOUDY    72  61  68 N8        29.75S
EVELETH        CLOUDY    68  59  73 N9        29.76S
DULUTH HARBOR  CLOUDY    64  63  94 E10       29.73S
TWO HARBORS    CLOUDY    64  61  88 CALM      29.72S
SILVER BAY     PTSUNNY   63  63 100 NW5       29.73R
GRAND MARAIS     N/A     60  58  92 S3        29.73S
G MARAIS ARPRT CLOUDY    63  57  82 N3        29.76S
$$
MNZ029>031-032-039>041-046>048-054>057-064-192200-
   West Central Minnesota

CITY           SKY/WX    TMP DP  RH WIND       PRES   REMARKS
FERGUS FALLS   MOSUNNY   81  59  47 NW7       29.75S
WHEATON        SUNNY     79  63  57 NW6       29.77F
MORRIS         SUNNY     84  63  48 N9        29.75F
ALEXANDRIA     MOSUNNY   79  61  53 NW8       29.78S
ELBOW LAKE     FAIR      78  64  61 N8        29.76F
WADENA         SUNNY     77  61  57 NW10      29.75F
GLENWOOD       SUNNY     79  63  57 NW9       29.78S
APPLETON       MOSUNNY   84  63  48 NW8       29.75F
BENSON         MOSUNNY   82  64  54 N8        29.75F
ORTONVILLE     MOSUNNY   81  63  54 N8        29.76F
MADISON        SUNNY     84  64  51 NW7       29.77S
WILLMAR        FAIR      82  61  47 NW12      29.77S
$$
MNZ033>034-036-042>043-049>051-058-059-192200-
   Central Minnesota

CITY           SKY/WX    TMP DP  RH WIND       PRES   REMARKS
ST CLOUD       PTSUNNY   82  63  52 N8        29.73F
SAUK CENTRE    FAIR      80  61  50 NW13G18   29.76S
PAYNESVILLE    MOSUNNY   78  59  51 W10G16    29.76S
AITKIN         MOSUNNY   77  66  69 NW7       29.73S
PINE RIVER     CLOUDY    75  64  69 N7        29.78F
BRAINERD       MOSUNNY   75  63  66 N10       29.75F
STAPLES        SUNNY     79  61  53 NW8       29.75S
LONG PRAIRIE   PTSUNNY   77  61  57 NW8       29.76S
LITTLE FALLS   MOSUNNY   77  59  53 W5        29.74S
LITCHFIELD     MOSUNNY   82  64  54 NW7       29.76S
BUFFALO        MOSUNNY   80  60  51 W6        29.75F
MAPLE LAKE     MOSUNNY   79  65  60 NW8       29.75F
$$
MNZ037-044-045-052-053-192200-
   East Central Minnesota

CITY           SKY/WX    TMP DP  RH WIND       PRES   REMARKS
PRINCETON      PTSUNNY   82  64  54 W10       29.73F
MORA           MOSUNNY   70  59  68 W5        29.75S
CAMBRIDGE      PTSUNNY   77  63  61 N3        29.72S
RUSH CITY      PTSUNNY   76  63  64 W5        29.73F
MOOSE LAKE     MOSUNNY   75  61  60 N8        29.71F
HINCKLEY       CLOUDY    75  64  69 NW9       29.73S
CLOQUET        PTSUNNY   70  61  73 N6        29.74S
MCGREGOR       MOSUNNY   73  61  64 NW9       29.74S
$$
MNZ071>073-080-081-089-090-097-098-192200-
   Southwest Minnesota

CITY           SKY/WX    TMP DP  RH WIND       PRES   REMARKS
MONTEVIDEO     MOSUNNY   82  66  57 N8        29.77S
GRANITE FALLS  MOSUNNY   80  66  61 NW8       29.78S
CANBY          MOSUNNY   83  62  48 N7        29.78S
MARSHALL       SUNNY     81  63  54 N10       29.77S
REDWOOD FALLS  PTSUNNY   85  63  47 N10       29.76S
OLIVIA         PTSUNNY   81  63  54 NW8       29.76S
PIPESTONE      SUNNY     81  61  50 W8        29.82S
WINDOM         MOSUNNY   81  63  54 NW5       29.79F
WORTHINGTON    PTSUNNY   81  19  10 NW8       29.83S
JACKSON        SUNNY     81  61  50 W5        29.80F
TRACY          SUNNY     83  64  51 CALM      29.79S
SLAYTON        MOSUNNY   83  60  45 CALM      29.82S
$$
MNZ065>067-074>077-082>085-091>093-192200-
   South Central Minnesota

CITY           SKY/WX    TMP DP  RH WIND       PRES   REMARKS
MANKATO        PTSUNNY   79  63  57 NW3       29.76F
NEW ULM        MOSUNNY   82  64  54 NW9       29.76S
ST JAMES         N/A     88  63  42 W8        29.77F
FAIRMONT       MOSUNNY   82  57  42 NW9       29.78F
GLENCOE        CLOUDY    82  61  48 W6        29.74F
FARIBAULT      MOSUNNY   82  57  42 CALM      29.76F
OWATONNA       SUNNY     79  63  57 NW3       29.77S
WASECA         MOSUNNY   77  59  53 W3        29.78F
ALBERT LEA     MOSUNNY   81  63  54 W7        29.77F
$$
MNZ078>079-086>088-094>096-192200-
   Southeast Minnesota

CITY           SKY/WX    TMP DP  RH WIND       PRES   REMARKS
ROCHESTER      MOSUNNY   78  62  57 NW12      29.78S
RED WING       MOSUNNY   81  61  50 W9        29.73S
STANTON        MOSUNNY   79  62  57 W6        29.75S
DODGE CENTER   MOSUNNY   75  64  69 NW8       29.78S
WINONA         PTSUNNY   73  63  68 NW6       29.74S
AUSTIN         MOSUNNY   77  63  61 N9        29.78S
PRESTON        CLOUDY    75  67  75 NW9       29.78S
$$
ABBREVIATIONS USED IN REMARKS
   TC - TEMPERATURES IN CELSIUS
  WCI - WIND CHILL INDEX
   HX - HEAT INDEX
  VSB - VISIBILITY
$$


USA.gov is the U.S. government's official web portal to all federal, state and local government web resources and services.